Precipitable_Water
1.40 1.45 1.48 1.36 1.31 1.30 1.29 1.20 1.19 1.24 1.35 1.39 1.45 1.50 1.50 1.53 1.47 1.44 1.40 1.33 1.14 1.10 1.17 1.13 1.11 1.12 1.07 1.17 1.33 1.28 1.15 1.11 1.02 1.13 1.24 1.30 1.26 1.31 1.34 1.37 1.36 1.38 1.41
1.37 1.41 1.43 1.43 1.31 1.26 1.24 1.26 1.15 1.19 1.35 1.38 1.48 1.48 1.49 1.52 1.50 1.45 1.40 1.42 1.37 1.27 1.11 1.16 1.14 1.21 1.17 1.12 1.20 1.25 1.20 1.19 1.08 1.06 1.20 1.25 1.29 1.33 1.33 1.36 1.37 1.42 1.45
1.40 1.38 1.38 1.42 1.30 1.19 1.21 1.29 1.19 1.18 1.32 1.36 1.42 1.44 1.44 1.48 1.48 1.46 1.46 1.46 1.48 1.50 1.38 1.26 1.25 1.26 1.22 1.19 1.16 1.20 1.24 1.25 1.15 1.17 1.16 1.31 1.30 1.36 1.30 1.33 1.35 1.37 1.39
1.41 1.38 1.32 1.37 1.37 1.18 1.15 1.27 1.23 1.20 1.25 1.32 1.39 1.42 1.48 1.53 1.52 1.51 1.51 1.50 1.55 1.59 1.63 1.57 1.38 1.27 1.22 1.19 1.18 1.19 1.23 1.19 1.11 1.15 1.20 1.24 1.32 1.38 1.38 1.29 1.26 1.33 1.26
1.37 1.36 1.32 1.40 1.43 1.32 1.18 1.21 1.24 1.23 1.26 1.30 1.34 1.41 1.46 1.48 1.50 1.50 1.50 1.50 1.56 1.61 1.71 1.69 1.59 1.46 1.28 1.25 1.21 1.22 1.28 1.25 1.12 1.16 1.22 1.24 1.22 1.26 1.29 1.37 1.34 1.29 1.25
1.38 1.32 1.38 1.42 1.42 1.35 1.24 1.18 1.24 1.24 1.24 1.26 1.25 1.28 1.31 1.37 1.40 1.42 1.48 1.55 1.61 1.66 1.67 1.72 1.68 1.58 1.38 1.26 1.28 1.30 1.37 1.35 1.20 1.20 1.20 1.16 1.14 1.27 1.37 1.34 1.33 1.20 0.99
1.34 1.34 1.37 1.41 1.39 1.34 1.36 1.22 1.16 1.20 1.27 1.22 1.23 1.27 1.24 1.29 1.34 1.37 1.53 1.69 1.72 1.74 1.79 1.69 1.65 1.62 1.49 1.29 1.28 1.35 1.44 1.50 1.45 1.47 1.28 1.18 1.22 1.36 1.39 1.36 1.27 1.13 1.06
1.35 1.34 1.44 1.43 1.37 1.38 1.36 1.28 1.21 1.22 1.21 1.22 1.21 1.25 1.27 1.28 1.35 1.51 1.73 1.84 1.89 1.80 1.79 1.77 1.64 1.56 1.52 1.34 1.26 1.35 1.38 1.44 1.50 1.47 1.38 1.32 1.42 1.47 1.45 1.40 1.26 1.18 1.16
1.36 1.37 1.36 1.42 1.43 1.42 1.33 1.29 1.29 1.29 1.25 1.22 1.29 1.29 1.28 1.39 1.61 1.78 1.83 1.93 1.84 1.75 1.85 1.78 1.64 1.51 1.43 1.39 1.35 1.35 1.34 1.40 1.54 1.53 1.41 1.42 1.45 1.48 1.41 1.24 1.07 1.00 0.89
1.35 1.37 1.34 1.40 1.47 1.48 1.44 1.36 1.39 1.35 1.32 1.36 1.37 1.42 1.49 1.68 1.87 1.90 1.90 1.93 1.74 1.75 1.74 1.67 1.58 1.45 1.43 1.44 1.40 1.33 1.26 1.28 1.42 1.35 1.32 1.36 1.35 1.28 1.16 1.07 0.96 0.81 0.78
1.35 1.30 1.39 1.46 1.44 1.51 1.61 1.61 1.45 1.40 1.40 1.42 1.48 1.55 1.75 1.88 1.74 1.53 1.60 1.79 1.76 1.72 1.53 1.44 1.41 1.37 1.35 1.35 1.36 1.31 1.25 1.30 1.31 1.26 1.24 1.17 1.03 0.94 0.91 0.86 0.83 0.77 0.71
1.38 1.35 1.43 1.45 1.46 1.52 1.57 1.68 1.71 1.62 1.44 1.43 1.58 1.72 1.84 1.77 1.60 1.67 1.57 1.75 1.70 1.47 1.34 1.32 1.35 1.37 1.36 1.33 1.30 1.27 1.27 1.30 1.25 1.14 1.01 0.87 0.82 0.79 0.76 0.77 0.76 0.77 0.80
1.27 1.32 1.36 1.44 1.47 1.59 1.54 1.63 1.70 1.77 1.57 1.50 1.55 1.65 1.66 1.69 1.69 1.76 1.56 1.57 1.53 1.38 1.36 1.39 1.43 1.33 1.26 1.20 1.13 1.19 1.25 1.19 1.09 0.94 0.77 0.74 0.75 0.74 0.73 0.69 0.72 0.72 0.67
1.14 1.13 1.21 1.33 1.45 1.38 1.50 1.84 1.65 1.77 1.74 1.67 1.70 1.69 1.73 1.63 1.58 1.59 1.42 1.42 1.38 1.36 1.39 1.39 1.33 1.23 1.11 1.11 1.12 1.14 1.12 1.06 0.91 0.76 0.71 0.73 0.75 0.75 0.67 0.68 0.66 0.62 0.54
1.08 1.17 1.22 1.31 1.40 1.57 1.70 1.81 1.78 1.94 1.96 1.83 1.88 1.92 1.72 1.47 1.37 1.43 1.36 1.28 1.30 1.34 1.28 1.24 1.16 1.08 1.05 1.03 0.99 1.00 0.95 0.87 0.78 0.76 0.72 0.71 0.70 0.68 0.67 0.66 0.59 0.55 0.45
1.04 1.10 1.27 1.38 1.45 1.52 1.51 1.66 1.95 2.01 2.04 2.15 2.09 2.09 1.83 1.73 1.45 1.39 1.37 1.41 1.37 1.30 1.15 1.14 1.14 1.01 0.95 0.89 0.84 0.81 0.82 0.80 0.78 0.76 0.71 0.70 0.66 0.61 0.56 0.54 0.53 0.46 0.36
1.40 1.48 1.42 1.49 1.53 1.70 1.80 1.75 1.51 1.88 2.02 1.95 1.56 1.55 1.61 1.47 1.37 1.39 1.40 1.30 1.21 1.16 1.03 0.99 0.94 0.88 0.83 0.79 0.76 0.74 0.73 0.75 0.75 0.69 0.67 0.65 0.56 0.50 0.47 0.46 0.41 0.36 0.30
1.54 1.59 1.61 1.65 1.86 1.94 1.78 1.48 1.39 1.24 1.35 1.54 1.66 1.56 1.51 1.40 1.40 1.33 1.18 1.09 0.99 0.96 0.85 0.82 0.84 0.83 0.80 0.72 0.71 0.72 0.71 0.68 0.65 0.60 0.55 0.52 0.48 0.45 0.40 0.35 0.34 0.29 0.28
1.57 1.73 1.84 1.84 1.97 1.86 1.81 1.63 1.53 1.37 1.53 1.53 1.35 1.38 1.35 1.30 1.21 1.10 1.09 0.95 0.88 0.86 0.90 0.85 0.86 0.79 0.72 0.70 0.69 0.68 0.63 0.58 0.56 0.52 0.50 0.43 0.40 0.37 0.33 0.33 0.30 0.30 0.31
1.43 1.52 1.64 1.68 1.43 1.46 1.54 1.47 1.48 1.47 1.34 1.25 1.31 1.28 1.26 1.19 1.03 1.06 1.07 1.04 0.93 0.87 0.85 0.79 0.76 0.72 0.71 0.68 0.66 0.63 0.60 0.56 0.50 0.47 0.42 0.35 0.35 0.35 0.32 0.32 0.30 0.29 0.31
1.49 1.55 1.60 1.45 1.46 1.51 1.46 1.38 1.33 1.26 1.30 1.29 1.25 1.26 1.21 1.17 1.13 1.12 1.04 0.94 0.90 0.85 0.82 0.77 0.74 0.72 0.71 0.69 0.66 0.62 0.58 0.54 0.49 0.45 0.37 0.34 0.34 0.32 0.33 0.31 0.30 0.31 0.30
1.61 1.53 1.39 1.33 1.36 1.33 1.28 1.24 1.21 1.22 1.23 1.19 1.19 1.16 1.14 1.09 1.06 1.01 0.99 1.00 0.95 0.89 0.87 0.83 0.74 0.72 0.71 0.69 0.69 0.62 0.59 0.54 0.49 0.47 0.40 0.34 0.32 0.32 0.32 0.30 0.28 0.30 0.29
1.32 1.33 1.35 1.40 1.45 1.45 1.42 1.39 1.31 1.28 1.31 1.31 1.25 1.16 1.10 1.07 1.05 1.07 1.04 1.01 1.00 0.94 0.98 0.92 0.87 0.80 0.79 0.76 0.74 0.67 0.59 0.54 0.50 0.47 0.39 0.32 0.31 0.30 0.28 0.25 0.27 0.27 0.28
1.42 1.35 1.35 1.36 1.40 1.39 1.39 1.39 1.47 1.44 1.38 1.31 1.29 1.24 1.23 1.19 1.16 1.13 1.06 1.07 1.06 1.00 1.00 0.97 0.90 0.85 0.85 0.82 0.75 0.68 0.61 0.54 0.49 0.43 0.37 0.32 0.28 0.25 0.22 0.22 0.27 0.28 0.28
1.27 1.26 1.27 1.26 1.29 1.33 1.36 1.36 1.35 1.35 1.31 1.26 1.26 1.26 1.24 1.22 1.18 1.12 1.07 1.04 1.05 1.04 0.99 0.95 0.91 0.87 0.86 0.74 0.70 0.63 0.58 0.51 0.44 0.40 0.36 0.31 0.27 0.25 0.22 0.21 0.25 0.28 0.28
1.26 1.31 1.24 1.23 1.21 1.27 1.29 1.27 1.25 1.22 1.23 1.24 1.21 1.24 1.25 1.19 1.15 1.10 1.09 1.10 1.08 1.05 1.00 0.91 0.88 0.82 0.76 0.71 0.65 0.60 0.55 0.52 0.46 0.39 0.33 0.29 0.23 0.17 0.18 0.25 0.28 0.27 0.28
Wind_Speed
25 25 24 25 26 26 26 25 25 24 23 22 20 18 16 14 13 12 12 11 12 12 13 14 14 15 15 15 16 16 16 15 16 17 17 16 17 18 18 19 19 20 22
27 26 26 24 25 26 27 26 26 26 26 24 21 20 18 17 15 15 14 14 14 15 15 16 17 17 18 17 17 17 17 17 17 18 18 18 19 20 20 20 21 22 24
28 27 26 26 25 26 27 27 27 28 27 25 24 22 20 19 18 17 17 17 17 18 18 19 19 19 20 19 19 19 19 19 19 19 20 20 21 22 22 21 22 24 25
29 29 28 27 26 25 27 28 28 28 29 27 25 24 22 21 20 20 19 20 20 21 21 20 20 20 20 19 19 20 20 21 21 21 22 22 23 23 22 24 26 26 26
30 30 30 29 28 27 28 29 30 29 29 29 27 26 24 23 23 22 22 22 22 22 22 22 22 22 21 22 22 22 22 23 23 23 23 23 24 26 26 27 28 29 28
31 31 30 30 30 29 29 31 31 31 31 30 29 28 27 25 24 24 24 23 23 23 23 23 23 24 23 24 24 25 25 25 25 24 24 25 26 27 28 30 29 30 30
30 30 31 31 31 31 30 31 33 33 32 32 31 29 28 27 26 26 25 24 24 24 23 23 24 24 24 24 25 26 26 27 26 25 26 27 28 29 28 29 31 32 32
32 32 31 32 32 32 32 32 33 34 34 33 32 31 30 28 27 26 25 24 23 23 23 24 25 25 25 25 25 26 26 27 26 26 27 28 29 28 31 32 33 35 35
35 34 33 32 32 34 34 34 34 34 35 34 33 32 31 28 26 25 25 24 24 23 24 25 25 25 25 25 26 26 27 26 25 25 27 28 29 31 32 33 33 34 35
37 36 35 35 35 35 35 36 35 36 35 34 34 33 31 29 27 25 24 23 23 23 25 25 25 24 23 24 25 26 26 25 24 25 28 28 29 30 32 33 33 32 31
38 37 36 36 36 36 36 37 37 36 36 35 34 32 31 29 27 25 24 22 23 23 24 23 22 22 24 25 25 24 24 23 24 25 26 27 28 29 30 28 27 28 29
39 38 39 39 37 36 37 37 37 37 36 35 33 32 31 30 28 26 25 22 23 23 22 21 22 23 23 22 22 23 22 22 22 24 24 25 26 26 25 25 26 27 28
40 42 42 41 41 38 39 39 38 38 39 37 36 33 31 29 27 25 22 22 21 20 20 21 21 21 21 21 21 21 20 21 22 22 23 24 24 24 24 24 26 27 28
43 45 44 44 43 42 41 41 41 41 40 40 37 36 32 29 26 25 23 21 20 20 20 21 21 20 20 19 19 19 19 20 20 21 22 23 23 23 24 24 25 26 27
46 47 47 45 44 42 40 40 41 41 42 42 38 37 31 28 25 22 21 19 19 20 20 21 21 20 18 18 18 17 18 19 20 21 22 22 22 23 24 24 24 25 25
44 47 48 46 44 43 40 37 35 37 40 38 37 27 28 22 21 20 19 18 18 18 18 18 17 17 17 17 16 17 18 19 20 21 20 20 21 22 22 23 24 24 24
44 44 44 44 42 41 39 37 35 32 31 18 27 19 17 18 19 19 19 18 17 17 17 17 16 16 16 16 17 17 17 18 19 19 18 19 20 21 22 22 22 23 23
43 42 42 42 43 42 39 38 37 36 40 24 31 23 19 16 17 18 17 17 17 17 16 16 16 16 16 17 16 15 17 17 17 17 17 18 19 20 20 21 22 22 22
45 36 37 39 31 30 30 33 33 27 26 21 17 18 19 17 17 18 18 19 18 18 17 15 16 17 16 15 14 15 16 16 17 16 17 18 18 19 19 20 21 21 22
39 35 22 32 28 23 31 25 21 20 21 20 19 19 20 19 18 20 21 19 19 16 15 16 16 16 14 14 15 16 16 16 16 16 17 17 17 17 18 20 20 20 22
26 41 30 13 14 18 19 19 19 18 19 19 19 20 20 21 21 21 19 17 17 16 16 16 16 15 15 15 15 16 16 16 16 16 17 16 15 16 17 18 19 20 21
14 15 13 14 14 15 15 16 17 17 17 18 19 19 19 20 20 20 18 18 18 17 16 16 16 16 16 16 16 16 16 16 16 17 16 15 15 15 16 17 18 19 20
7 10 12 13 14 14 15 16 16 18 19 19 19 18 19 18 18 19 19 19 19 18 18 17 17 17 17 17 18 17 17 17 17 17 16 14 14 15 16 16 17 18 19
7 9 12 13 14 15 17 18 17 18 18 18 20 20 21 21 21 20 20 19 20 19 20 20 20 19 19 19 19 18 17 17 17 16 15 15 15 15 15 15 16 17 18
9 10 11 12 13 15 17 17 18 19 19 20 21 21 21 21 21 21 21 21 22 22 21 21 21 20 20 20 19 18 18 17 16 15 15 16 16 16 16 15 15 16 17
17 18 17 16 17 16 17 18 18 18 18 18 18 20 22 23 23 23 24 23 22 21 21 21 20 20 20 20 19 19 18 16 15 15 16 17 17 16 15 14 15 15 16
Wind_Direction
225 225 228 230 230 230 230 230 227 222 219 219 223 225 229 239 245 254 267 278 285 290 298 299 301 305 305 304 308 307 299 294 293 298 295 292 289 290 290 288 288 289 288
227 227 228 231 230 229 229 228 225 221 219 221 224 227 232 240 247 255 264 274 280 286 289 295 296 299 301 302 302 303 298 296 292 293 295 292 291 293 292 291 289 291 292
227 228 229 230 231 230 227 225 224 221 221 223 227 231 236 242 249 257 265 272 278 284 287 290 294 293 295 297 299 297 297 295 291 289 293 292 292 293 289 291 293 295 293
228 228 228 229 230 230 226 224 223 222 223 225 229 234 239 245 253 260 267 272 277 284 286 288 294 293 292 293 296 298 296 294 290 289 290 290 291 294 288 290 294 296 294
228 228 229 230 231 231 228 225 225 225 226 228 232 237 242 248 255 261 268 272 277 282 286 288 291 292 289 289 292 295 295 292 290 288 288 289 290 289 287 291 292 294 293
230 230 231 231 231 231 230 228 227 227 229 230 234 238 243 250 255 262 269 271 275 280 283 287 291 292 288 287 289 292 292 292 291 286 289 289 292 290 288 290 290 293 295
230 230 231 232 232 232 232 230 229 229 230 232 235 239 244 250 255 262 266 270 274 278 282 288 290 290 290 289 291 293 293 291 289 280 289 290 292 292 290 291 292 292 293
231 232 235 233 233 232 232 232 231 231 232 233 237 241 246 251 256 261 263 267 272 277 282 288 290 291 289 290 292 293 294 293 287 287 288 291 293 289 292 291 292 293 293
233 236 235 233 235 233 233 233 233 232 234 235 239 241 245 250 254 257 262 264 271 275 283 289 289 291 290 290 292 292 294 293 290 286 291 293 293 293 293 294 295 295 295
234 235 236 236 235 236 234 234 234 234 235 237 239 242 243 248 252 257 258 265 268 277 285 289 290 291 291 292 293 293 293 292 290 290 295 296 297 296 296 296 297 297 297
235 237 236 239 237 237 236 236 234 235 235 237 239 239 242 246 250 255 264 262 271 276 285 287 290 291 293 293 294 292 292 293 293 295 297 298 300 302 301 300 300 300 300
238 238 238 240 240 238 237 236 236 235 235 236 236 237 241 243 250 254 266 263 271 279 282 286 291 293 294 295 295 294 293 293 295 298 300 302 304 306 305 304 305 305 304
238 240 241 240 243 241 238 237 237 235 234 235 235 238 239 241 248 254 257 265 271 278 282 286 292 294 294 296 297 296 293 294 298 300 301 303 304 307 308 308 308 309 309
242 240 242 243 243 243 242 240 242 235 234 234 237 236 231 238 242 249 258 263 269 276 285 287 289 293 294 295 297 296 296 298 299 301 303 304 307 309 310 310 311 313 314
246 245 244 243 242 240 241 243 240 236 235 236 235 231 224 234 244 244 250 258 265 275 283 284 285 285 288 294 295 295 297 299 301 302 304 305 308 309 310 310 312 314 315
249 246 243 240 238 237 240 240 240 238 235 232 228 227 223 231 234 243 249 257 266 275 283 287 283 281 285 290 290 294 298 299 302 304 304 305 308 311 312 312 313 314 315
248 244 238 235 234 233 231 229 228 231 249 234 231 231 228 222 230 238 251 255 267 272 280 281 282 282 286 286 290 294 297 300 303 305 303 305 309 312 313 314 315 316 316
245 239 234 231 230 222 224 227 240 247 259 250 216 230 228 225 232 242 250 257 267 273 276 276 278 281 284 286 288 291 297 302 304 304 303 306 310 313 315 316 317 318 319
232 228 227 226 212 208 223 233 243 236 218 219 210 220 226 230 241 246 255 263 267 272 270 271 276 279 281 281 286 292 296 299 302 302 303 307 310 314 316 318 319 320 321
214 215 226 235 230 227 222 211 206 200 203 209 218 224 229 236 246 254 263 262 261 264 267 271 274 275 274 277 284 290 294 296 298 299 302 306 309 313 318 320 321 322 324
203 215 218 214 190 184 185 189 193 201 207 214 221 228 237 247 254 256 258 255 258 262 266 270 270 269 270 275 283 286 291 294 294 296 300 304 306 312 317 320 321 323 326
139 165 183 186 184 186 195 198 204 210 215 227 239 244 247 249 250 249 249 255 256 261 266 269 270 266 267 272 280 282 286 290 292 295 296 298 301 308 314 318 322 326 328
176 182 187 192 201 206 210 217 225 229 236 240 239 241 242 243 247 247 252 253 255 258 263 267 268 268 268 272 277 280 282 286 290 292 289 291 296 303 309 315 320 325 329
206 206 210 221 228 227 227 231 231 232 236 240 243 242 244 246 250 250 250 255 257 261 262 265 266 267 266 272 274 274 277 283 286 284 283 287 292 298 304 310 316 323 328
240 235 234 234 235 235 234 234 237 241 245 245 244 247 244 243 247 251 253 256 259 261 264 265 266 264 262 270 270 269 272 279 278 276 279 284 287 291 296 301 309 318 325
252 249 243 246 247 243 242 247 247 245 247 247 244 244 247 246 251 253 256 255 259 260 262 264 263 259 260 265 266 265 263 269 274 276 280 284 286 286 287 292 300 311 318